Location: Newark
(50.9243°N, 2.7593°W)
Time: 03:03:54
(UTC+00:00)

N. Korean satellite - Visible Passes

Search period start: 21 January 2020 00:00
Search period end: 31 January 2020 00:00
Orbit: 454 x 508 km, 97.2° (Epoch: 20 January)

Date Brightness Start Highest point End Pass type
(mag) Time Alt. Az. Time Alt. Az. Time Alt. Az.
21 Jan 7.4 05:52:08 10° NNE 05:55:34 50° E 05:59:03 10° S visible
21 Jan 8.1 07:26:27 10° NNW 07:28:38 16° WNW 07:30:49 10° W visible
21 Jan 9.7 18:06:56 10° SW 18:09:13 17° W 18:11:30 10° NW visible
22 Jan 8.8 05:26:55 10° NE 05:29:58 26° E 05:33:02 10° SSE visible
22 Jan 7.5 07:00:19 10° N 07:03:20 27° WNW 07:06:22 10° SW visible
22 Jan 8.6 17:40:27 10° SSW 17:43:32 31° W 17:46:37 10° NNW visible
23 Jan 9.7 05:02:12 10° NE 05:04:16 15° E 05:06:21 10° SE visible
23 Jan 6.7 06:34:31 10° N 06:37:57 50° WNW 06:41:25 10° SSW visible
24 Jan 6.6 06:08:55 10° NNE 06:12:29 82° ESE 06:16:05 10° SSW visible
24 Jan 10.1 18:25:16 10° WSW 18:26:15 11° W 18:27:15 10° WNW visible
25 Jan 7.9 05:43:32 10° NNE 05:46:56 40° E 05:50:21 10° S visible
25 Jan 7.9 07:17:31 10° NNW 07:20:05 19° WNW 07:22:40 10° WSW visible
25 Jan 9.5 17:57:53 10° SW 18:00:29 20° W 18:03:09 10° NW visible
26 Jan 9.1 05:18:26 10° NE 05:21:18 22° E 05:24:10 10° SE visible
26 Jan 7.2 06:51:31 10° N 06:54:45 33° WNW 06:58:01 10° SW visible
26 Jan 8.2 17:31:37 10° SSW 17:34:50 38° W 17:38:06 10° NNW visible
27 Jan 10.0 04:54:03 10° ENE 04:55:34 12° E 04:57:06 10° ESE visible
27 Jan 6.5 06:25:47 10° N 06:29:20 63° WNW 06:32:55 10° SSW visible
28 Jan 7.0 06:00:16 10° NNE 06:03:50 65° E 06:07:27 10° S visible
28 Jan 9.9 18:15:42 10° WSW 18:17:30 14° W 18:19:19 10° WNW visible
29 Jan 8.4 05:34:58 10° NNE 05:38:15 33° E 05:41:35 10° SSE visible
29 Jan 7.7 07:08:38 10° NNW 07:11:31 23° WNW 07:14:25 10° WSW visible
29 Jan 9.1 17:48:53 10° SSW 17:51:46 25° W 17:54:42 10° NW visible
30 Jan 9.5 05:10:00 10° NE 05:12:35 18° E 05:15:12 10° SE visible
30 Jan 7.0 06:42:44 10° N 06:46:09 41° WNW 06:49:35 10° SW visible
